Home > Weather > Male > Past weeks

Flag for Maldives Weather for the Past 2 Weeks in Male, Maldives

Now
90 °F

Partly sunny.


Feels Like: 86 °F
Forecast: 82 / 89 °F
Wind: 12 mph from North

Location: Male Airport

Current Time: Feb 7, 2016 at 2:41:47 PM

Latest Report: Feb 7, 2016 at 2:00 PM


Visibility: 5 mi

Pressure: 29.83 "Hg

Humidity: 15%

Dew point: 36 °F

Location of MaleLocation

Historic Weather in Male — Graph

°F

Male Temperature Yesterday

Maximum temperature yesterday: 88 °F (at 11:00 AM)
Minimum temperature yesterday: 81 °F (at 4:00 AM)
Average temperature yesterday: 84 °F

High & Low Weather Summary for the Past Weeks

 TemperatureHumidityPressure
High90 °F (Jan 23, 2:00 PM)94% (Jan 25, 8:00 PM)29.98 "Hg (Jan 25, 8:00 PM)
Low75 °F (Jan 29, 2:00 AM)58% (Feb 3, 10:00 PM)29.80 "Hg (Jan 23, 3:00 PM)
Average85 °F73%29.89 "Hg
* Reported Jan 23 1:00 PM — Feb 7 1:00 PM, Male, Weather by CustomWeather, © 2016

Note: Actual official high and low records may vary slightly from our data, if they occured in-between our weather recording intervals... More about our weather records

Advertising

Male Weather History for the Previous 24 Hours

 ConditionsComfort  
Time TempWeatherWind HumidityBarometerVisibility
1:00 PM
Sun, Feb 7
90 °FPartly sunny.12 mph63%29.89 "Hg5 mi
12:00 PM90 °FPartly sunny.10 mph67%29.92 "Hg5 mi
11:00 AM88 °FPartly sunny.13 mph66%29.92 "Hg5 mi
10:00 AM86 °FScattered clouds.12 mph70%29.95 "Hg5 mi
9:00 AM86 °FScattered clouds.9 mph70%29.92 "Hg6 mi
8:00 AM84 °FScattered clouds.9 mph74%29.92 "Hg6 mi
7:00 AM82 °FScattered clouds.8 mph79%29.89 "Hg6 mi
6:00 AM81 °FPassing clouds.7 mph84%29.86 "HgN/A
5:00 AM82 °FPassing clouds.7 mph79%29.83 "HgN/A
4:00 AM82 °FPartly cloudy.8 mph74%29.83 "HgN/A
3:00 AM82 °FPassing clouds.9 mph79%29.83 "HgN/A
1:00 AM82 °FPartly cloudy.9 mph79%29.89 "HgN/A
12:00 AM84 °FPartly cloudy.8 mph74%29.92 "HgN/A
11:00 PM
Sat, Feb 6
84 °FPassing clouds.10 mph74%29.92 "HgN/A
10:00 PM84 °FPassing clouds.9 mph70%29.92 "HgN/A
9:00 PM84 °FPassing clouds.10 mph70%29.92 "HgN/A
8:00 PM84 °FPassing clouds.7 mph74%29.89 "HgN/A
7:00 PM84 °FPassing clouds.7 mph70%29.86 "HgN/A
6:00 PM86 °FScattered clouds.8 mph66%29.83 "HgN/A
5:00 PM86 °FScattered clouds.9 mph66%29.83 "HgN/A
4:00 PM86 °FScattered clouds.8 mph66%29.80 "HgN/A
3:00 PM88 °FPartly sunny.9 mph62%29.80 "HgN/A
2:00 PM88 °FScattered clouds.8 mph62%29.83 "HgN/A
Weather by CustomWeather, © 2016

See weather overviewHow to use our weather pages